User: anonymous   Login
Location: Unspecified
(0.0000°N, 0.0000°E)
Time: 00:22:48
(UTC+00:00)
Language:

OBJECT C - Orbit

View from above orbital plane
View from above orbital plane
View from above satellite
View from above satellite

Ground track
Ground track

The orbit data is extracted from the following two-line orbital elements,

1 42827U 17042C   21023.64499062  .00000291  00000-0  34299-4 0  9998
2 42827  97.4938 261.1014 0013513 267.9510  92.0161 14.91508484192086
Epoch (UTC): 23 January 2021 15:28:47
Eccentricity: 0.0013513
inclination: 97.4938°
perigee height: 584 km
apogee height: 602 km
right ascension of ascending node: 261.1014°
argument of perigee: 267.9510°
revolutions per day: 14.91508484
mean anomaly at epoch: 92.0161°
orbit number at epoch: 19208

The dashed part of the orbit path shows where the satellite is in the earth's shadow,  

DLR